Location: Lecco
(45.8566°N, 9.3977°E)
Time: 12:14:35
(UTC+02:00)

Tiros 1 - All Passes

Search period start: 07 August 2020 00:00
Search period end: 17 August 2020 00:00
Orbit: 630 x 664 km, 48.4° (Epoch: 06 August)

Date Brightness Start Highest point End Pass type
(mag) Time Alt. Az. Time Alt. Az. Time Alt. Az.
07 Aug - 10:53:09 10° S 10:56:26 19° SE 10:59:41 10° E daylight
07 Aug - 12:33:26 10° WSW 12:38:03 68° SSE 12:42:38 10° ENE daylight
07 Aug - 14:15:44 10° W 14:20:20 64° N 14:24:57 10° ENE daylight
07 Aug - 15:58:09 10° WNW 16:02:48 79° NNE 16:07:26 10° ESE daylight
07 Aug - 17:40:31 10° WNW 17:44:48 38° SW 17:49:05 10° SE daylight
08 Aug - 11:17:50 10° SSW 11:22:06 36° SE 11:26:21 10° E daylight
08 Aug - 12:59:26 10° WSW 13:04:04 81° NNW 13:08:43 10° ENE daylight
08 Aug - 14:41:55 10° WNW 14:46:32 64° N 14:51:07 10° E daylight
08 Aug - 16:24:14 10° WNW 16:28:50 71° SSW 16:33:27 10° ESE daylight
08 Aug - 18:07:06 10° W 18:10:29 20° SW 18:13:52 10° S daylight
09 Aug - 10:03:16 10° S 10:06:22 18° SE 10:09:28 10° E daylight
09 Aug - 11:43:21 10° SW 11:47:57 65° SSE 11:52:32 10° ENE daylight
09 Aug - 13:25:37 10° W 13:30:14 65° N 13:34:50 10° ENE daylight
09 Aug - 15:08:03 10° WNW 15:12:41 77° NNE 15:17:19 10° E daylight
09 Aug - 16:50:23 10° WNW 16:54:44 41° SSW 16:59:04 10° SE daylight
10 Aug - 10:27:49 10° SSW 10:32:01 34° SE 10:36:13 10° E daylight
10 Aug - 12:09:19 10° WSW 12:13:58 84° NNW 12:18:37 10° ENE daylight
10 Aug - 13:51:48 10° WNW 13:56:25 63° N 14:01:00 10° E daylight
10 Aug - 15:34:07 10° WNW 15:38:45 75° SSW 15:43:21 10° ESE daylight
10 Aug - 17:16:55 10° W 17:20:26 22° SW 17:23:57 10° S daylight
11 Aug - 09:13:24 10° S 09:16:19 17° SE 09:19:14 10° E daylight
11 Aug - 10:53:16 10° SW 10:57:52 61° SSE 11:02:27 10° ENE daylight
11 Aug - 12:35:29 10° W 12:40:06 66° N 12:44:43 10° ENE daylight
11 Aug - 14:17:56 10° WNW 14:22:34 75° NNE 14:27:12 10° E daylight
11 Aug - 16:00:16 10° WNW 16:04:39 43° SSW 16:09:02 10° SE daylight
12 Aug - 09:37:48 10° SSW 09:41:57 32° SE 09:46:05 10° E daylight
12 Aug - 11:19:12 10° WSW 11:23:52 87° NNW 11:28:31 10° ENE daylight
12 Aug - 13:01:42 10° W 13:06:18 63° N 13:10:54 10° E daylight
12 Aug - 14:44:01 10° WNW 14:48:39 78° SSW 14:53:16 10° ESE daylight
12 Aug - 16:26:44 10° W 16:30:23 23° SW 16:34:01 10° SSE daylight
13 Aug - 08:23:33 10° S 08:26:16 15° SE 08:28:58 10° E daylight
13 Aug - 10:03:11 10° SW 10:07:46 58° SSE 10:12:20 10° ENE daylight
13 Aug - 11:45:21 10° W 11:49:59 67° N 11:54:37 10° ENE daylight
13 Aug - 13:27:50 10° WNW 13:32:29 73° NNE 13:37:06 10° E daylight
13 Aug - 15:10:09 10° WNW 15:14:35 46° SSW 15:18:59 10° SE daylight
13 Aug - 16:54:40 10° WSW 16:55:54 11° SW 16:57:09 10° SSW daylight
14 Aug - 08:47:48 10° SSW 08:51:53 30° SE 08:55:56 10° E daylight
14 Aug - 10:29:05 10° WSW 10:33:46 90° NNW 10:38:25 10° ENE daylight
14 Aug - 12:11:34 10° W 12:16:11 63° N 12:20:46 10° E daylight
14 Aug - 13:53:55 10° WNW 13:58:34 82° SSW 14:03:11 10° ESE daylight
14 Aug - 15:36:33 10° W 15:40:19 25° SW 15:44:04 10° SSE daylight
15 Aug - 07:33:45 10° SSE 07:36:13 14° SE 07:38:41 10° ESE daylight
15 Aug - 09:13:07 10° SW 09:17:41 55° SSE 09:22:14 10° ENE daylight
15 Aug - 10:55:13 10° W 10:59:53 69° N 11:04:30 10° ENE daylight
15 Aug - 12:37:43 10° WNW 12:42:21 71° N 12:46:59 10° E daylight
15 Aug - 14:20:02 10° WNW 14:24:30 49° SSW 14:28:57 10° SE daylight
15 Aug - 16:04:07 10° WSW 16:05:52 12° SW 16:07:38 10° SSW daylight
16 Aug - 07:57:48 10° SSW 08:01:49 28° SE 08:05:48 10° E daylight
16 Aug - 09:38:58 10° WSW 09:43:39 87° SSE 09:48:20 10° ENE daylight
16 Aug - 11:21:26 10° W 11:26:04 63° N 11:30:39 10° E daylight
16 Aug - 13:03:48 10° WNW 13:08:28 85° SSW 13:13:05 10° ESE daylight
16 Aug - 14:46:23 10° W 14:50:15 27° SW 14:54:07 10° SSE daylight
